Time,TemperatureF,DewpointF,PressureIn,WindDirection,WindDirectionDegrees,WindSpeedMPH,WindSpeedGustMPH,Humidity,HourlyPrecipIn,Conditions,Clouds,dailyrainin,SolarRadiationWatts/m^2,SoftwareType,DateUTC
2013-02-04 00:01:00,73.8,67.0,29.96,SE,137,0.0,5.0,79,0.00,,,0.00,0,weatherlink.com 1.10,2013-02-04 04:01:00,
2013-02-04 00:16:00,73.6,67.0,29.96,SE,137,1.0,2.0,80,0.00,,,0.00,0,weatherlink.com 1.10,2013-02-04 04:16:00,
2013-02-04 00:31:00,73.4,67.0,29.96,SE,137,0.0,2.0,80,0.00,,,0.00,0,weatherlink.com 1.10,2013-02-04 04:31:00,
2013-02-04 01:01:00,73.0,67.0,29.95,SE,137,0.0,0.0,81,0.00,,,0.00,0,weatherlink.com 1.10,2013-02-04 05:01:00,
2013-02-04 01:16:00,72.9,67.0,29.94,SE,137,0.0,1.0,81,0.00,,,0.00,0,weatherlink.com 1.10,2013-02-04 05:16:00,
2013-02-04 01:31:00,72.8,67.0,29.93,SE,137,3.0,3.0,81,0.00,,,0.00,0,weatherlink.com 1.10,2013-02-04 05:31:00,
2013-02-04 01:46:00,72.6,67.0,29.92,SE,137,3.0,3.0,81,0.00,,,0.00,0,weatherlink.com 1.10,2013-02-04 05:46:00,
2013-02-04 02:01:00,72.6,67.0,29.91,SE,137,3.0,5.0,81,0.00,,,0.00,0,weatherlink.com 1.10,2013-02-04 06:01:00,
2013-02-04 02:16:00,72.7,67.0,29.91,SE,137,0.0,4.0,81,0.00,,,0.00,0,weatherlink.com 1.10,2013-02-04 06:16:00,
2013-02-04 02:31:00,72.5,67.0,29.90,SE,138,4.0,5.0,82,0.00,,,0.00,0,weatherlink.com 1.10,2013-02-04 06:31:00,
2013-02-04 02:46:00,72.2,66.0,29.90,SE,137,0.0,4.0,82,0.00,,,0.00,0,weatherlink.com 1.10,2013-02-04 06:46:00,
2013-02-04 03:01:00,72.0,67.0,29.90,SE,136,0.0,3.0,83,0.00,,,0.00,0,weatherlink.com 1.10,2013-02-04 07:01:00,
2013-02-04 03:16:00,71.5,66.0,29.90,SSE,150,3.0,6.0,83,0.00,,,0.00,0,weatherlink.com 1.10,2013-02-04 07:16:00,
2013-02-04 03:31:00,71.2,66.0,29.89,SE,145,0.0,5.0,83,0.00,,,0.00,0,weatherlink.com 1.10,2013-02-04 07:31:00,
2013-02-04 03:46:00,70.9,66.0,29.90,SSE,165,2.0,7.0,84,0.00,,,0.00,0,weatherlink.com 1.10,2013-02-04 07:46:00,
2013-02-04 04:01:00,70.8,66.0,29.90,SE,141,2.0,5.0,84,0.00,,,0.00,0,weatherlink.com 1.10,2013-02-04 08:01:00,
2013-02-04 04:16:00,70.7,66.0,29.90,SE,136,0.0,4.0,84,0.00,,,0.00,0,weatherlink.com 1.10,2013-02-04 08:16:00,
2013-02-04 04:32:00,70.8,66.0,29.90,SE,136,0.0,3.0,84,0.00,,,0.00,0,weatherlink.com 1.10,2013-02-04 08:32:00,
2013-02-04 04:46:00,70.8,66.0,29.90,SE,136,2.0,3.0,84,0.00,,,0.00,0,weatherlink.com 1.10,2013-02-04 08:46:00,
2013-02-04 05:01:00,70.8,66.0,29.91,SE,136,0.0,1.0,85,0.00,,,0.00,0,weatherlink.com 1.10,2013-02-04 09:01:00,
2013-02-04 05:16:00,70.7,66.0,29.91,SE,136,0.0,1.0,85,0.00,,,0.00,0,weatherlink.com 1.10,2013-02-04 09:16:00,
2013-02-04 05:31:00,70.8,67.0,29.92,SE,136,0.0,1.0,86,0.00,,,0.00,0,weatherlink.com 1.10,2013-02-04 09:31:00,
2013-02-04 05:46:00,71.1,67.0,29.93,SE,138,0.0,3.0,86,0.00,,,0.00,0,weatherlink.com 1.10,2013-02-04 09:46:00,
2013-02-04 06:01:00,70.8,67.0,29.92,SE,138,0.0,3.0,87,0.00,,,0.00,0,weatherlink.com 1.10,2013-02-04 10:01:00,
2013-02-04 06:16:00,70.6,67.0,29.93,SE,138,0.0,2.0,87,0.00,,,0.00,0,weatherlink.com 1.10,2013-02-04 10:16:00,
2013-02-04 06:31:00,70.1,66.0,29.94,SE,138,0.0,2.0,87,0.00,,,0.00,0,weatherlink.com 1.10,2013-02-04 10:31:00,
2013-02-04 06:46:00,69.9,66.0,29.94,SE,138,0.0,1.0,87,0.00,,,0.00,0,weatherlink.com 1.10,2013-02-04 10:46:00,
2013-02-04 07:01:00,69.9,66.0,29.95,SE,138,1.0,1.0,88,0.00,,,0.00,7,weatherlink.com 1.10,2013-02-04 11:01:00,
2013-02-04 07:17:00,70.1,67.0,29.95,SE,138,0.0,1.0,88,0.00,,,0.00,39,weatherlink.com 1.10,2013-02-04 11:17:00,
2013-02-04 07:32:00,70.3,67.0,29.96,SE,138,0.0,3.0,88,0.00,,,0.00,81,weatherlink.com 1.10,2013-02-04 11:32:00,
2013-02-04 07:47:00,70.8,67.0,29.96,SE,138,0.0,2.0,86,0.00,,,0.00,139,weatherlink.com 1.10,2013-02-04 11:47:00,
2013-02-04 08:02:00,71.5,67.0,29.97,SE,138,0.0,2.0,84,0.00,,,0.00,192,weatherlink.com 1.10,2013-02-04 12:02:00,
2013-02-04 08:17:00,72.4,67.0,29.97,SE,138,0.0,2.0,84,0.00,,,0.00,248,weatherlink.com 1.10,2013-02-04 12:17:00,
2013-02-04 08:32:00,73.3,68.0,29.98,SE,138,2.0,3.0,82,0.00,,,0.00,42,weatherlink.com 1.10,2013-02-04 12:32:00,
2013-02-04 08:47:00,74.2,68.0,29.98,SE,138,2.0,3.0,81,0.00,,,0.00,54,weatherlink.com 1.10,2013-02-04 12:47:00,
2013-02-04 09:02:00,76.0,68.0,29.99,ESE,114,5.0,8.0,76,0.00,,,0.00,417,weatherlink.com 1.10,2013-02-04 13:02:00,
2013-02-04 09:17:00,78.0,68.0,29.99,ESE,118,5.0,10.0,71,0.00,,,0.00,464,weatherlink.com 1.10,2013-02-04 13:17:00,
2013-02-04 09:32:00,79.2,68.0,30.00,ESE,103,7.0,9.0,69,0.00,,,0.00,515,weatherlink.com 1.10,2013-02-04 13:32:00,
2013-02-04 09:47:00,80.1,68.0,30.00,SE,129,3.0,7.0,67,0.00,,,0.00,564,weatherlink.com 1.10,2013-02-04 13:47:00,
2013-02-04 10:02:00,81.0,69.0,30.00,East,84,2.0,9.0,66,0.00,,,0.00,613,weatherlink.com 1.10,2013-02-04 14:02:00,
2013-02-04 10:17:00,81.8,68.0,30.00,ESE,102,5.0,9.0,64,0.00,,,0.00,664,weatherlink.com 1.10,2013-02-04 14:17:00,
2013-02-04 10:32:00,82.3,68.0,30.00,East,96,6.0,9.0,62,0.00,,,0.00,543,weatherlink.com 1.10,2013-02-04 14:32:00,
2013-02-04 10:47:00,83.7,69.0,30.00,NE,51,3.0,7.0,61,0.00,,,0.00,100,weatherlink.com 1.10,2013-02-04 14:47:00,
2013-02-04 11:03:00,83.9,69.0,30.00,East,80,7.0,12.0,62,0.00,,,0.00,192,weatherlink.com 1.10,2013-02-04 15:03:00,
2013-02-04 11:17:00,80.9,71.0,30.01,East,94,6.0,11.0,71,0.00,,,0.00,199,weatherlink.com 1.10,2013-02-04 15:17:00,
2013-02-04 11:33:00,78.9,69.0,30.00,ENE,69,3.0,10.0,71,0.00,,,0.00,236,weatherlink.com 1.10,2013-02-04 15:33:00,
2013-02-04 11:47:00,79.4,69.0,30.00,ESE,118,3.0,9.0,70,0.00,,,0.00,241,weatherlink.com 1.10,2013-02-04 15:47:00,
2013-02-04 12:03:00,79.9,69.0,29.99,ENE,59,2.0,6.0,70,0.00,,,0.00,272,weatherlink.com 1.10,2013-02-04 16:03:00,
2013-02-04 12:18:00,80.6,70.0,29.99,ENE,61,4.0,8.0,69,0.00,,,0.00,432,weatherlink.com 1.10,2013-02-04 16:18:00,
2013-02-04 12:33:00,82.5,70.0,29.98,NE,49,4.0,9.0,65,0.00,,,0.00,911,weatherlink.com 1.10,2013-02-04 16:33:00,
2013-02-04 12:48:00,83.9,70.0,29.97,ENE,67,5.0,9.0,64,0.00,,,0.00,865,weatherlink.com 1.10,2013-02-04 16:48:00,
2013-02-04 13:03:00,84.3,70.0,29.96,NE,55,7.0,12.0,63,0.00,,,0.00,856,weatherlink.com 1.10,2013-02-04 17:03:00,
2013-02-04 13:18:00,84.5,69.0,29.95,ENE,76,7.0,14.0,60,0.00,,,0.00,838,weatherlink.com 1.10,2013-02-04 17:18:00,
2013-02-04 13:33:00,83.9,68.0,29.95,ENE,62,8.0,15.0,60,0.00,,,0.00,817,weatherlink.com 1.10,2013-02-04 17:33:00,
2013-02-04 14:03:00,83.8,67.0,29.93,ENE,77,12.0,16.0,58,0.00,,,0.00,770,weatherlink.com 1.10,2013-02-04 18:03:00,
2013-02-04 14:18:00,83.6,69.0,29.93,East,82,7.0,14.0,61,0.00,,,0.00,740,weatherlink.com 1.10,2013-02-04 18:18:00,
2013-02-04 14:33:00,83.0,68.0,29.92,ENE,74,4.0,15.0,61,0.00,,,0.00,701,weatherlink.com 1.10,2013-02-04 18:33:00,
2013-02-04 14:48:00,82.7,67.0,29.92,ENE,57,11.0,18.0,59,0.00,,,0.00,671,weatherlink.com 1.10,2013-02-04 18:48:00,
2013-02-04 15:03:00,82.7,68.0,29.91,ENE,68,9.0,18.0,61,0.00,,,0.00,497,weatherlink.com 1.10,2013-02-04 19:03:00,
2013-02-04 15:18:00,82.3,66.0,29.91,East,92,7.0,16.0,59,0.00,,,0.00,591,weatherlink.com 1.10,2013-02-04 19:18:00,
2013-02-04 15:33:00,82.5,67.0,29.91,ENE,75,9.0,19.0,60,0.00,,,0.00,492,weatherlink.com 1.10,2013-02-04 19:33:00,
2013-02-04 15:48:00,81.9,68.0,29.91,North,360,6.0,17.0,63,0.00,,,0.00,499,weatherlink.com 1.10,2013-02-04 19:48:00,
2013-02-04 16:03:00,81.7,67.0,29.91,ENE,63,12.0,18.0,62,0.00,,,0.00,394,weatherlink.com 1.10,2013-02-04 20:03:00,
2013-02-04 16:18:00,81.4,68.0,29.91,NE,50,10.0,15.0,63,0.00,,,0.00,202,weatherlink.com 1.10,2013-02-04 20:18:00,
2013-02-04 16:33:00,80.9,67.0,29.91,ENE,65,3.0,15.0,62,0.00,,,0.00,334,weatherlink.com 1.10,2013-02-04 20:33:00,
2013-02-04 16:48:00,80.7,66.0,29.91,ENE,77,8.0,16.0,62,0.00,,,0.00,281,weatherlink.com 1.10,2013-02-04 20:48:00,
2013-02-04 17:03:00,79.6,66.0,29.91,ENE,64,9.0,16.0,64,0.00,,,0.00,37,weatherlink.com 1.10,2013-02-04 21:03:00,
2013-02-04 17:18:00,79.2,66.0,29.91,East,86,9.0,16.0,64,0.00,,,0.00,33,weatherlink.com 1.10,2013-02-04 21:18:00,
2013-02-04 17:33:00,78.9,65.0,29.91,ENE,65,4.0,13.0,63,0.00,,,0.00,30,weatherlink.com 1.10,2013-02-04 21:33:00,
2013-02-04 17:48:00,78.7,65.0,29.92,East,79,6.0,13.0,62,0.00,,,0.00,25,weatherlink.com 1.10,2013-02-04 21:48:00,
2013-02-04 18:03:00,78.4,63.0,29.92,East,84,10.0,14.0,59,0.00,,,0.00,16,weatherlink.com 1.10,2013-02-04 22:03:00,
2013-02-04 18:18:00,78.1,63.0,29.93,East,88,7.0,13.0,60,0.00,,,0.00,5,weatherlink.com 1.10,2013-02-04 22:18:00,
2013-02-04 18:33:00,77.9,63.0,29.93,East,92,6.0,12.0,61,0.00,,,0.00,0,weatherlink.com 1.10,2013-02-04 22:33:00,
2013-02-04 18:48:00,77.7,63.0,29.93,East,83,7.0,15.0,61,0.00,,,0.00,0,weatherlink.com 1.10,2013-02-04 22:48:00,
2013-02-04 19:03:00,77.5,64.0,29.94,East,81,7.0,13.0,63,0.00,,,0.00,0,weatherlink.com 1.10,2013-02-04 23:03:00,
2013-02-04 19:18:00,77.3,64.0,29.94,ENE,74,3.0,8.0,64,0.00,,,0.00,0,weatherlink.com 1.10,2013-02-04 23:18:00,
2013-02-04 19:33:00,77.1,64.0,29.95,East,88,2.0,10.0,64,0.00,,,0.00,0,weatherlink.com 1.10,2013-02-04 23:33:00,
2013-02-04 19:48:00,76.9,64.0,29.95,ESE,116,8.0,11.0,65,0.00,,,0.00,0,weatherlink.com 1.10,2013-02-04 23:48:00,
2013-02-04 20:03:00,76.8,65.0,29.96,ESE,105,4.0,10.0,66,0.00,,,0.00,0,weatherlink.com 1.10,2013-02-05 00:03:00,
2013-02-04 20:18:00,76.5,65.0,29.96,East,89,7.0,8.0,67,0.00,,,0.00,0,weatherlink.com 1.10,2013-02-05 00:18:00,
2013-02-04 20:33:00,76.4,65.0,29.97,East,82,2.0,9.0,67,0.00,,,0.00,0,weatherlink.com 1.10,2013-02-05 00:33:00,
2013-02-04 21:03:00,75.8,65.0,29.98,East,83,2.0,7.0,69,0.00,,,0.00,0,weatherlink.com 1.10,2013-02-05 01:03:00,
2013-02-04 21:18:00,75.6,65.0,29.98,ENE,63,3.0,8.0,69,0.00,,,0.00,0,weatherlink.com 1.10,2013-02-05 01:18:00,
2013-02-04 21:33:00,75.5,65.0,29.99,ENE,71,1.0,5.0,69,0.00,,,0.00,0,weatherlink.com 1.10,2013-02-05 01:33:00,
2013-02-04 22:03:00,75.0,65.0,29.99,East,100,2.0,6.0,70,0.00,,,0.00,0,weatherlink.com 1.10,2013-02-05 02:03:00,
2013-02-04 22:33:00,74.4,65.0,30.00,East,100,0.0,5.0,73,0.00,,,0.00,0,weatherlink.com 1.10,2013-02-05 02:33:00,
2013-02-04 22:48:00,74.2,65.0,29.99,East,100,1.0,2.0,73,0.00,,,0.00,0,weatherlink.com 1.10,2013-02-05 02:48:00,
2013-02-04 23:03:00,73.9,65.0,29.99,East,100,0.0,2.0,73,0.00,,,0.00,0,weatherlink.com 1.10,2013-02-05 03:03:00,
2013-02-04 23:18:00,73.7,65.0,29.99,East,100,0.0,2.0,74,0.00,,,0.00,0,weatherlink.com 1.10,2013-02-05 03:18:00,
2013-02-04 23:33:00,73.5,65.0,29.99,East,100,0.0,1.0,75,0.00,,,0.00,0,weatherlink.com 1.10,2013-02-05 03:33:00,
2013-02-04 23:48:00,73.3,65.0,29.98,East,100,0.0,2.0,76,0.00,,,0.00,0,weatherlink.com 1.10,2013-02-05 03:48:00,